Simultaneous Nadir Overpasses (SNOs) Predictions

Prediction of SNOs between LANDSAT-8 and NOAA-19 Satellite Orbit:

Table of predicted SNOs for the next 14.0 days since TLE Epoch: 4/24/2021
Index Date (LANDSAT-8) Time (LANDSAT-8) Lat,Lon (LANDSAT-8) SZA (LANDSAT-8 ) Date (NOAA-19) Time (NOAA-19) Lat,Lon (NOAA-19) SZA (NOAA-19 ) Distance(km) Time Diff (sec)
1 04/25/2021 19:03:40 80.35, -75.67 68.27 04/25/2021 19:03:49 80.34, -75.79 68.26 2.26 9
2 04/28/2021 00:37:23 -80.36, 20.97 112.42 04/28/2021 00:37:01 -80.35, 20.95 112.44 1.17 22
3 04/28/2021 01:26:50 80.32,-171.69 67.52 04/28/2021 01:28:00 80.33,-171.56 67.57 2.62 70
4 04/30/2021 06:11:05 80.36, 117.59 66.91 04/30/2021 06:10:12 80.35, 117.67 66.89 1.99 53
5 04/30/2021 07:00:33 -80.33, -75.05 113.15 04/30/2021 07:01:12 -80.35, -75.03 113.12 1.82 39
6 05/02/2021 12:34:14 80.36, 21.84 66.25 05/02/2021 12:34:23 80.34, 21.85 66.23 2.62 9
7 05/04/2021 18:07:57 -80.37, 118.47 114.39 05/04/2021 18:07:34 -80.36, 118.31 114.42 3.18 23
8 05/04/2021 18:57:24 80.34, -74.24 65.54 05/04/2021 18:58:35 80.35, -74.32 65.58 2.51 71
9 05/06/2021 23:41:39 80.37,-145.01 64.98 05/06/2021 23:40:47 80.37,-145.15 64.96 2.65 52



Historial Predications of SNOs between LANDSAT-8 and NOAA-19
